EDT,Max TemperatureF,Mean TemperatureF,Min TemperatureF,Max Dew PointF,MeanDew PointF,Min DewpointF,Max Humidity, Mean Humidity, Min Humidity, Max Sea Level PressureIn, Mean Sea Level PressureIn, Min Sea Level PressureIn, Max VisibilityMiles, Mean VisibilityMiles, Min VisibilityMiles, Max Wind SpeedMPH, Mean Wind SpeedMPH, Max Gust SpeedMPH,PrecipitationIn, CloudCover, Events, WindDirDegrees
2013-6-1,88,79,70,70,68,65,100,73,46,30.16,30.10,30.04,10,10,10,17,12,24,0.00,0,,200
2013-6-2,87,79,71,69,67,64,90,68,46,30.06,30.01,29.94,10,10,10,21,13,28,0.00,1,,203
2013-6-3,77,73,69,73,70,68,97,90,82,29.97,29.92,29.84,10,9,0,17,8,23,1.07,6,Fog-Rain,187
2013-6-4,76,70,63,70,64,50,100,72,44,30.14,30.00,29.92,10,8,0,22,9,25,T,2,Fog,354
2013-6-5,77,66,55,61,56,48,97,69,41,30.17,30.13,30.09,10,10,10,14,7,17,0.00,0,,85
2013-6-6,79,72,65,72,67,62,100,79,58,30.09,29.96,29.86,10,9,2,21,9,29,0.50,3,Rain,120
2013-6-7,83,77,71,75,72,68,100,87,74,29.89,29.72,29.49,10,8,2,35,15,47,0.75,8,Rain,170
2013-6-8,84,77,70,74,71,68,97,81,65,30.09,29.94,29.83,10,9,1,6,8,7,0.46,5,Rain-Thunderstorm,200
2013-6-9,84,77,70,76,72,68,100,85,70,30.18,30.14,30.10,10,9,0,17,7,23,0.00,3,Fog,116
2013-6-10,86,80,73,74,71,68,87,76,65,30.13,30.05,29.93,10,10,10,25,12,32,0.06,4,Rain,195
2013-6-11,86,78,69,72,68,63,87,68,48,29.96,29.90,29.84,10,10,10,26,12,35,0.02,4,Rain,235
2013-6-12,90,79,68,71,67,65,90,69,47,29.95,29.89,29.85,10,10,10,16,8,26,0.00,0,,235
2013-6-13,95,82,69,77,71,61,90,67,43,29.86,29.70,29.54,10,10,4,44,13,64,0.12,1,Rain,218
2013-6-14,76,67,57,67,59,53,93,71,49,30.00,29.83,29.66,10,10,10,25,11,31,0.00,3,,322
2013-6-15,85,72,58,64,59,56,90,65,40,30.09,30.05,30.00,10,10,10,16,8,22,0.00,1,,247
2013-6-16,86,77,68,66,62,56,73,61,48,30.12,30.05,30.00,10,10,10,24,14,31,0.00,0,,221
2013-6-17,86,78,70,71,67,64,87,74,61,30.04,30.01,29.97,10,10,8,26,11,35,0.11,2,Rain,219
2013-6-18,85,78,71,75,71,69,93,79,65,29.97,29.85,29.76,10,9,1,20,9,24,0.66,5,Rain,206
2013-6-19,76,71,66,72,66,62,93,81,69,30.14,29.96,29.80,10,10,9,18,11,22,0.00,6,,13
2013-6-20,76,70,64,63,60,55,93,72,50,30.25,30.21,30.15,10,10,10,17,12,22,0.00,1,,43
2013-6-21,79,73,66,71,68,63,93,84,74,30.25,30.23,30.21,10,10,6,20,11,22,0.00,6,,30
2013-6-22,83,77,70,73,70,67,97,83,69,30.24,30.21,30.17,10,10,8,16,7,23,0.01,5,Rain,76
2013-6-23,88,81,74,74,72,70,94,76,57,30.22,30.19,30.15,10,10,10,20,9,24,0.00,2,,191
2013-6-24,87,81,74,74,72,70,94,80,65,30.21,30.17,30.10,10,10,10,20,10,24,T,4,Rain,219
2013-6-25,90,81,72,74,72,67,93,75,56,30.12,30.05,29.97,10,10,10,20,11,23,0.00,1,,231
2013-6-26,90,82,73,74,71,68,93,75,56,30.01,29.95,29.88,10,10,10,23,12,32,0.00,1,,215
2013-6-27,91,82,72,75,72,69,93,76,59,29.91,29.82,29.74,10,10,5,26,14,32,0.00,2,,207
2013-6-28,92,83,73,77,73,67,94,72,49,29.74,29.67,29.60,10,10,10,26,12,36,0.30,3,Rain-Thunderstorm,216
2013-6-29,85,78,71,75,73,69,94,84,74,29.77,29.68,29.57,10,7,0,18,9,24,1.83,6,Fog-Rain-Thunderstorm,215
2013-6-30,81,78,74,75,73,72,94,87,79,29.93,29.83,29.78,10,9,0,18,10,25,0.73,5,Fog-Rain,188